Location: Unspecified
(0.0000°N, 0.0000°E)
Time: 21:58:25
(UTC+02:00)

Daily predictions for brighter satellites

Satellite Brightness Start Highest point End
(mag) Time Altitude Azimuth Time Altitude Azimuth Time Altitude Azimuth
CSL-04 Rocket 4.0 20:18:31 10° S 20:24:02 75° WSW 20:29:26 10° NNW
GENESIS II 4.1 20:24:40 10° SSW 20:28:29 70° ESE 20:32:19 10° NNE
Cosmos 2333 Rocket 4.2 20:27:42 10° NW 20:32:36 29° WSW 20:37:31 10° SSW
Cosmos 1378 4.4 20:30:13 10° SE 20:33:08 21° E 20:36:00 10° NE
Delta 2 Rocket 4.3 20:31:32 10° SSW 20:34:19 20° SE 20:36:56 10° E
FENGYUN 3A 3.9 20:31:04 10° S 20:36:26 76° WSW 20:41:48 10° NNW
Cosmos 1092 Rocket 4.5 20:31:37 10° NNE 20:37:16 38° E 20:42:53 10° SSE
Ariane H10 4.0 20:35:30 10° WNW 20:39:10 41° NNE 20:50:59 10° E
ATLAS V CENTAUR R/B 3.1 20:38:10 10° SSW 20:39:34 18° SSE 20:40:42 13° ESE
Cosmos 1544 3.0 20:37:10 10° N 20:40:42 64° E 20:44:16 10° SSE
Cosmos 158 Rocket 4.0 20:37:29 10° S 20:42:51 70° ESE 20:48:09 10° NNE
Cosmos 1707 4.0 20:44:00 10° SE 20:46:59 21° E 20:49:56 10° NE
ARIANE 5 DEB (SYLDA) 3.3 20:43:06 10° W 20:47:54 79° S 20:59:38 10° E
H-II Stage 2 4.5 20:49:34 10° W 20:52:22 42° NNW 21:01:42 10° NE
CZ-4 R/B 3.4 20:50:29 10° SSW 20:53:58 28° WSW 20:57:21 10° NW
Ariane Rocket 4.2 20:50:44 10° S 20:55:33 44° WSW 21:00:22 10° NNW
Cosmos 972 4.5 20:51:39 10° S 20:57:08 65° E 21:02:06 10° NNE
Cosmos 2228 3.8 20:53:34 10° NNE 20:57:29 32° E 21:00:14 17° SE
Cosmos 1844 Rocket 3.4 20:53:27 10° SSE 20:58:24 31° ESE 21:03:19 10° NE
Ariane H10+ 1.8 20:50:36 10° WSW 20:58:56 63° S 21:00:58 22° ESE
GOES 2 Rocket 3.6 20:56:44 10° NW 21:00:49 43° NNE 21:03:17 20° E
SPOT 3 Rocket 3.8 20:57:32 11° SSE 21:02:21 47° ENE 21:07:17 10° N
Cosmos 468 4.4 20:58:54 10° S 21:04:12 78° ESE 21:09:30 10° NNE
Cosmos 2058 Rocket 3.6 21:01:30 10° NNE 21:05:29 35° E 21:07:31 23° SE
FREGAT/IRIS 3.2 21:07:59 33° E 21:08:10 33° E 21:10:51 10° NNE
Delta 2 Rocket 4.3 21:04:08 10° WNW 21:09:56 52° SSW 21:13:56 21° SE
YAOGAN 1 4.5 21:06:47 10° SSW 21:10:32 29° WSW 21:14:16 10° NW
Cosmos 1726 Rocket 3.4 21:07:33 10° N 21:11:57 76° E 21:15:53 13° S
GPS 2-14 Rocket1 3.4 21:09:13 10° W 21:12:58 49° NNW 21:15:57 14° NE
ATLAS 2AS CENTAUR R/B 3.0 21:06:20 10° SSW 21:13:21 80° WNW 21:21:03 10° NNE
deb Ariane 3.5 21:07:41 10° W 21:14:21 66° SSW 21:15:29 36° ESE
Aureole 1 Rocket 2.3 21:15:55 10° SSW 21:19:00 69° WNW 21:21:56 10° N
Timation 1 Rocket 4.4 21:14:12 10° S 21:19:55 49° ESE 21:25:38 10° NNE
HJ-1C 3.8 21:22:32 43° ENE 21:22:32 43° ENE 21:25:34 10° N
Cosmos 1805 3.1 21:19:17 10° N 21:23:10 82° E 21:24:58 30° S
BREEZE M DEB (TANK) 3.9 21:23:17 10° N 21:24:45 15° NNE 21:24:45 15° NNE
H-2A R/B 4.4 21:22:13 10° SSW 21:25:44 33° WSW 21:29:13 10° NW
Cosmos 2056 Rocket 4.5 21:21:26 10° NNE 21:25:51 28° ENE 21:25:51 28° ENE
ARIANE 5 R/B 2.4 21:23:49 10° W 21:26:17 75° S 21:28:25 34° E
SJ-6B 3.8 21:27:25 29° NE 21:27:25 29° NE 21:30:04 10° NNE
Ariane H10 3.4 21:17:20 10° W 21:27:53 47° SSW 21:29:06 36° SSE
SL-16 R/B 2.8 21:22:54 10° NNW 21:28:26 55° WSW 21:33:41 11° S
BLOCK DM-SL R/B 1.3 21:26:48 10° W 21:30:15 58° NNW 21:30:15 58° NNW
Cosmos 1766 4.5 21:28:32 10° NNW 21:32:14 41° W 21:35:40 12° SSW
Cosmos 1953 4.1 21:29:30 10° NNE 21:30:56 18° NE 21:30:56 18° NE
Cosmos 1269 Rocket 3.9 21:27:50 10° S 21:33:07 75° ESE 21:38:23 10° NNE
Cosmos 1400 Rocket 3.2 21:31:01 10° SSW 21:35:06 66° W 21:39:07 10° N
SWIFT 4.1 21:33:58 10° NNW 21:37:10 20° NNE 21:37:54 19° NE
Meteor 2-5 Rocket 3.7 21:37:30 19° S 21:41:45 67° E 21:47:37 10° NNE
CZ-2D R/B 3.3 21:42:06 68° NNE 21:42:06 68° NNE 21:45:37 10° N
In-Cosmos 22 4.4 21:46:07 46° ENE 21:46:07 46° ENE 21:50:39 10° NNE
GPS 2-17 Rocket1 3.9 21:42:37 10° NW 21:47:04 38° NNE 21:47:27 37° NNE
NOSS 3-4 (A) 4.3 21:45:41 10° S 21:55:54 21° NE 21:57:51 10° NE
Stardust Del rocket 4.4 21:44:50 10° WSW 21:55:56 67° SSE 21:56:43 61° ESE
H-2A R/B (2) 2.4 21:53:12 10° W 21:56:04 44° NNW 21:57:15 33° NNE
Envisat 3.5 22:01:07 43° SSW 22:02:27 57° WSW 22:07:24 10° NNW
Cosmos 1603 3.6 21:58:40 10° NNW 22:04:16 81° NE 22:04:16 81° NE
Ariane H10 3.7 12:17:48 10° W 22:04:26 56° N 22:06:21 39° NE
Ariane H10-3 2.8 22:00:02 10° W 22:06:02 40° SW 22:06:02 40° SW
NATO 3D Rocket 4.4 22:06:17 10° NW 22:10:42 38° N 22:10:42 38° N
Resurs 01 Rocket 4.2 22:28:31 14° N 22:28:31 14° N 22:29:12 10° N
Ariane H10+ 4.4 22:20:33 10° W 22:24:29 30° W 22:24:29 30° W
BLOCK DM-SL R/B 3.8 22:20:36 10° W 22:31:32 76° WSW 22:31:32 76° WSW
ARIANE 5 R/B 4.2 13:59:06 10° W 22:42:27 76° N 22:45:50 55° ENE
